GFSSW_700_rhum_372.txt.gz
RH
67 64 63 64 65 64 61 63 60 56 52 45 46 48 48 44 38 36 35 40 33 33 38 28 16 12 17 21 25 30 32 34 26 24 23 22 22 22 20 19 19 21 23 18 15
70 68 68 65 61 58 57 53 52 54 56 55 54 50 44 42 36 36 37 30 31 27 30 30 29 16 13 17 32 32 32 30 26 26 24 24 25 24 24 23 26 28 25 22 21
70 68 67 63 61 58 56 55 52 54 54 56 54 55 58 55 43 42 36 32 36 39 41 40 31 24 20 26 31 28 26 22 24 25 29 31 31 29 27 28 29 27 24 22 21
67 67 66 64 64 62 60 56 54 55 57 56 57 60 59 58 47 47 49 51 47 45 47 44 35 30 27 27 26 30 28 28 26 27 31 34 35 34 33 33 31 29 27 24 24
68 68 70 68 64 59 59 58 56 55 56 54 61 60 60 53 41 41 39 40 46 45 43 49 49 40 36 36 40 38 32 32 32 33 36 38 42 38 37 35 33 32 30 28 27
73 73 72 71 67 61 57 53 52 55 55 58 56 51 41 33 36 32 30 32 36 48 57 60 56 56 58 52 51 44 42 42 40 41 43 42 40 41 39 36 36 33 32 30 29
72 69 68 66 64 61 60 56 53 50 45 39 31 24 22 20 25 24 37 38 41 51 57 69 72 82 72 71 65 57 62 55 49 46 43 44 46 42 41 39 36 35 32 32 31
71 68 62 56 56 55 52 49 40 31 26 21 15 17 12 17 21 23 32 55 67 55 55 68 86 85 87 79 65 58 65 62 49 50 50 50 48 45 43 40 39 38 36 33 32
69 70 64 56 56 51 44 36 26 18 12 8 8 7 10 19 18 33 43 49 52 64 70 71 97 100 100 100 97 67 65 58 54 51 48 52 48 45 41 39 39 38 36 36 35
77 76 68 57 48 38 27 13 8 5 4 5 6 8 21 22 31 55 64 60 68 88 83 80 78 82 99 99 94 85 74 65 63 60 52 49 49 49 46 43 40 38 37 36 36
87 80 61 46 26 14 5 2 2 4 8 4 15 34 61 55 58 64 56 51 59 72 86 99 93 86 80 75 76 86 82 87 70 70 66 70 72 61 55 53 53 47 41 39 42
77 64 56 22 5 1 1 1 1 5 3 9 61 63 55 45 45 56 50 42 43 67 75 92 79 54 72 75 76 80 92 89 69 76 85 97 96 94 83 66 64 63 60 57 56
68 48 12 1 1 1 1 2 2 2 6 32 55 60 57 60 56 58 33 46 58 42 70 94 58 73 85 81 86 91 93 77 85 70 96 97 97 96 96 92 89 79 70 67 65
30 3 1 1 1 2 3 3 3 6 31 50 62 64 65 74 60 56 75 82 97 95 98 96 62 87 82 89 99 96 67 81 93 90 94 89 94 96 96 96 95 93 82 68 65
3 1 1 2 2 3 3 3 4 23 54 57 71 61 72 56 48 37 88 93 82 74 71 77 97 95 100 92 87 84 94 98 96 97 98 97 98 99 100 99 97 96 96 93 88
1 2 2 3 3 4 4 4 10 52 74 48 62 72 45 18 26 31 22 21 27 32 44 50 52 94 86 72 70 86 97 98 99 99 96 88 97 96 98 100 98 96 96 96 96
2 3 4 4 5 4 4 7 26 60 48 60 51 58 15 19 28 15 34 42 79 84 75 63 56 62 82 95 99 99 98 94 97 96 92 76 99 98 96 98 98 96 96 96 96
4 4 5 5 5 5 6 11 44 58 62 74 54 8 29 32 23 24 42 76 90 86 76 86 67 58 61 77 78 77 91 95 95 96 86 99 97 100 100 99 97 96 96 96 96
5 6 6 7 6 6 7 22 78 92 92 55 8 11 21 22 29 54 78 100 98 87 86 86 79 46 31 33 75 69 77 68 97 96 96 99 100 100 100 98 98 98 96 96 96
6 7 7 7 7 7 8 48 74 33 17 11 16 44 54 39 46 60 100 99 100 84 78 79 100 53 63 60 43 94 93 90 97 94 93 94 98 100 100 100 100 98 97 97 97
8 8 10 8 8 6 7 7 8 8 8 12 27 42 42 67 71 92 100 98 93 74 70 76 100 68 73 94 98 82 88 95 96 74 91 99 100 100 98 98 96 98 100 98 96
9 10 9 9 8 8 8 8 7 8 13 22 26 47 55 76 87 100 100 97 100 90 75 98 100 99 100 100 100 98 100 100 99 96 96 75 100 100 100 100 100 100 100 99 98
11 11 11 10 9 9 9 8 8 9 12 10 32 47 71 92 94 100 96 100 97 60 98 94 99 97 75 94 74 89 98 100 99 100 100 98 100 100 100 100 100 100 99 99 99
12 12 12 10 11 10 11 10 9 10 10 12 33 35 67 88 97 96 90 91 73 81 92 99 87 97 96 100 100 100 95 97 98 99 100 100 100 100 100 100 100 100 100 100 100
14 14 14 12 12 12 13 12 10 9 9 11 21 28 44 86 88 95 92 49 50 57 94 98 99 94 100 100 87 96 100 98 98 100 100 100 98 100 100 100 100 100 100 100 100
16 16 16 13 14 14 15 14 11 10 10 9 12 20 43 86 100 96 92 30 35 42 82 100 100 100 100 100 100 75 96 99 94 100 100 100 100 100 100 100 100 100 100 100 100
18 18 17 16 18 18 18 17 14 12 12 10 12 14 21 54 99 70 61 26 35 41 56 100 100 100 100 100 100 74 100 100 99 100 100 98 100 100 100 100 100 100 100 99 98

GFSSW_700_rhum_375.txt.gz
RH
70 70 70 70 68 65 64 60 60 61 56 59 53 50 49 44 37 35 40 46 39 34 41 40 42 40 22 13 16 27 34 33 29 26 21 21 19 19 20 22 21 17 16 18 17
63 64 66 64 62 60 57 55 53 53 54 54 52 50 53 56 47 38 43 43 35 29 29 30 32 42 42 24 20 28 26 26 21 22 21 22 25 25 26 23 22 21 19 18 20
66 64 62 63 63 62 60 55 53 55 58 55 50 52 56 57 46 44 48 46 36 34 33 38 45 46 40 39 24 22 21 19 21 22 24 27 31 30 28 27 25 23 21 21 23
66 63 65 64 60 60 57 55 52 52 54 53 51 51 52 50 39 42 47 48 47 50 50 54 58 53 46 43 40 33 24 24 25 35 38 34 34 38 36 32 29 29 27 26 27
66 61 64 64 65 62 55 52 53 53 49 43 36 31 29 27 23 29 32 40 50 54 52 61 70 71 55 51 59 61 40 42 44 45 47 51 52 49 41 37 35 33 35 31 29
65 59 57 61 63 62 54 51 47 43 38 29 22 16 14 14 24 24 22 27 34 41 68 83 89 86 82 71 81 63 58 56 56 62 66 60 60 62 53 48 43 43 39 35 33
67 64 54 58 61 58 49 49 44 33 22 12 7 5 7 8 11 12 19 34 45 60 69 77 84 93 90 95 88 90 86 72 66 66 58 66 69 62 56 54 48 47 45 38 35
68 61 59 57 57 55 53 43 22 7 3 2 3 4 4 8 15 31 41 42 47 53 52 60 73 91 100 100 100 90 85 82 65 60 65 65 60 62 60 56 49 45 44 41 37
67 60 66 65 62 46 24 9 3 2 1 2 2 4 10 22 38 45 65 52 52 55 62 73 92 98 100 98 98 97 98 97 80 64 56 58 61 59 54 52 54 50 47 44 39
69 70 68 60 30 10 2 1 1 1 3 2 7 10 28 47 60 64 60 50 42 37 38 64 90 95 97 97 91 86 97 96 86 73 67 62 60 60 54 53 50 49 48 46 42
75 71 50 14 2 1 1 1 2 3 3 6 17 52 68 66 65 61 55 47 37 29 26 45 74 52 68 63 76 81 91 98 77 85 79 96 96 94 67 56 52 49 50 51 48
78 48 6 1 1 1 2 2 3 5 6 11 68 63 60 56 55 65 52 45 37 23 33 79 76 40 76 87 90 80 76 83 69 61 89 96 96 94 97 81 64 62 66 56 52
52 6 1 1 2 2 3 3 4 4 5 30 76 61 57 60 66 57 40 26 25 28 87 100 54 83 98 93 95 86 89 77 80 65 96 96 97 96 96 97 95 81 71 70 65
3 1 2 3 3 3 4 4 4 5 22 40 77 66 57 66 62 31 48 53 72 80 80 49 49 76 92 98 100 96 76 90 94 95 94 92 95 91 93 98 99 97 96 92 78
1 2 3 3 4 4 5 5 5 11 54 46 65 64 88 54 14 52 26 15 8 9 18 12 60 79 68 74 85 95 98 98 97 96 100 96 97 97 99 100 100 97 96 96 96
3 4 4 5 5 6 6 6 7 32 54 49 59 66 27 6 19 20 8 8 9 17 25 45 51 72 96 100 89 97 97 82 88 100 96 80 94 100 99 100 100 99 96 96 97
4 5 6 6 7 7 7 7 15 38 36 58 44 15 7 21 24 16 24 34 63 59 60 48 46 67 62 53 39 85 72 94 99 96 79 77 97 100 98 99 97 96 96 96 96
6 6 7 7 8 8 8 8 19 40 46 46 16 7 26 31 25 35 48 76 87 87 76 78 72 48 37 66 94 73 82 95 96 94 95 97 97 100 98 96 96 98 96 96 96
7 7 8 9 9 9 7 10 36 64 59 27 8 13 23 27 28 48 76 100 100 98 93 83 77 47 79 69 75 87 77 82 94 82 92 97 100 100 100 100 98 98 97 99 96
8 8 9 10 10 9 9 17 34 20 11 10 19 34 46 38 41 70 98 98 100 100 83 88 98 77 68 66 74 90 98 88 98 95 94 94 100 100 100 100 99 99 99 98 97
9 10 11 11 11 9 10 9 8 8 10 17 27 35 46 65 76 91 100 100 98 84 62 96 100 69 84 95 100 78 87 89 97 97 96 98 100 100 100 100 99 99 99 98 98
11 12 12 13 10 12 10 10 10 10 15 16 14 41 42 62 89 100 100 96 100 54 85 100 100 100 100 100 94 96 100 100 100 95 99 98 99 100 100 100 100 100 100 100 99
14 14 14 14 14 13 12 11 11 11 11 9 18 21 44 84 93 99 100 100 98 41 86 97 98 100 96 83 77 99 99 100 100 100 100 100 100 100 100 100 100 100 100 100 100
16 15 16 14 15 15 15 14 12 11 11 9 13 22 42 96 96 97 94 53 60 54 98 95 79 70 90 98 100 100 99 95 100 98 100 100 100 100 100 100 100 100 100 100 100
17 18 18 17 17 17 18 17 14 12 11 11 16 22 37 70 82 86 39 30 31 39 91 100 99 96 100 100 86 92 98 99 98 100 100 100 100 100 100 100 100 100 100 100 100
18 19 20 18 20 20 21 20 17 14 13 13 17 22 41 76 96 64 27 30 45 34 61 100 100 100 100 100 100 75 96 90 95 100 100 100 99 100 100 100 100 100 100 100 100
21 21 22 22 23 24 26 25 21 17 17 14 16 17 25 60 66 62 31 36 58 54 50 100 100 100 100 90 96 78 99 100 100 100 100 97 100 100 100 100 100 100 100 100 100

GFSSW_700_rhum_378.txt.gz
RH
55 58 57 57 58 59 58 56 57 57 58 58 56 52 48 48 44 40 37 44 43 43 46 44 42 55 63 42 25 24 30 34 37 28 25 26 23 21 21 22 21 21 22 20 17
62 60 56 56 55 56 54 53 52 50 52 50 48 46 46 45 42 39 38 41 47 40 32 37 42 60 64 59 39 39 37 35 29 34 27 28 27 26 24 23 23 23 22 22 22
62 61 59 61 58 54 52 50 54 53 51 49 47 44 40 36 33 29 42 43 36 46 45 34 37 44 62 69 90 51 41 39 35 34 36 36 33 33 29 26 29 29 26 26 25
59 59 59 60 58 57 52 51 53 53 50 46 39 34 26 18 20 18 26 32 32 42 52 45 44 64 62 66 72 69 50 46 42 45 46 50 46 43 38 35 33 32 31 29 27
59 61 64 65 61 60 55 53 53 51 45 32 20 11 6 6 8 17 20 26 39 50 55 62 65 70 70 70 75 69 62 57 57 61 53 50 55 54 48 46 41 40 38 35 33
61 62 62 61 60 57 54 49 38 26 15 7 3 2 2 3 12 13 16 20 22 33 51 57 77 100 99 99 98 91 89 84 81 79 80 84 78 78 66 60 55 49 42 38 37
66 65 68 65 66 60 47 28 9 2 1 1 1 2 2 4 6 14 34 47 51 43 35 53 74 88 90 92 99 100 99 98 97 80 78 78 77 72 71 71 60 50 46 43 41
66 69 73 72 65 48 22 4 1 1 1 1 2 2 3 6 18 34 36 43 49 51 51 57 61 68 81 92 99 98 98 98 89 80 68 70 83 81 72 69 68 64 58 55 50
70 74 74 66 44 10 1 1 1 1 2 4 3 4 10 20 30 52 51 54 50 44 35 31 37 52 91 98 98 97 97 96 89 94 96 79 91 86 89 77 68 68 65 58 54
69 68 60 28 4 1 1 2 2 3 4 5 7 7 33 48 63 64 62 59 54 47 38 37 41 54 74 97 93 74 79 83 95 84 95 97 97 96 84 77 74 80 81 67 56
63 47 11 1 1 2 2 3 3 3 5 5 7 18 61 69 71 62 62 59 44 36 28 30 41 40 54 79 86 87 89 94 67 68 100 94 96 96 95 85 75 74 88 94 82
32 3 1 2 2 3 4 4 4 5 6 11 52 69 74 73 66 64 59 46 32 16 12 29 46 60 100 100 96 95 98 87 68 50 86 88 93 95 96 97 93 79 84 94 97
1 1 2 3 3 4 4 5 5 6 7 30 75 83 78 76 68 58 46 22 19 10 12 46 34 57 91 92 98 89 97 93 84 68 96 93 96 90 94 97 98 98 95 92 96
2 3 3 4 4 5 6 6 7 7 19 46 84 88 69 79 42 29 25 31 12 11 9 15 43 65 58 50 73 71 73 90 97 100 94 90 94 91 100 100 99 97 96 96 96
3 4 4 4 6 7 7 8 8 10 52 53 76 81 80 40 14 34 12 8 8 11 29 37 33 35 71 98 98 94 94 97 95 96 98 97 97 96 100 100 98 96 97 97 97
5 5 5 6 7 8 8 9 9 27 47 46 55 63 13 8 18 16 9 9 13 28 46 34 39 76 82 80 50 47 59 58 67 57 94 84 96 100 100 98 99 98 96 96 96
6 6 7 7 8 9 10 10 14 38 31 48 35 12 8 23 21 15 23 35 64 64 66 57 36 45 56 51 47 48 66 89 93 100 73 87 97 100 100 98 100 98 97 96 96
7 7 8 9 10 10 11 10 15 33 39 38 12 9 25 34 30 40 60 88 86 90 78 76 72 74 85 90 92 79 100 98 98 100 97 67 99 100 100 100 100 99 98 98 97
8 9 10 10 11 13 10 11 30 43 38 20 11 22 40 30 33 59 99 100 100 99 81 86 74 70 80 74 76 75 95 88 97 74 100 100 100 100 100 98 100 100 99 98 98
10 10 11 12 14 12 13 16 22 12 12 16 30 39 40 39 42 84 100 100 100 95 54 92 99 90 81 62 73 81 99 92 99 100 100 99 99 100 100 100 99 100 99 99 98
12 12 12 14 14 14 14 12 10 11 14 22 22 28 45 50 74 100 100 100 96 83 48 98 100 84 73 85 100 88 96 94 100 100 99 97 99 100 100 100 100 100 100 100 100
12 12 13 16 15 16 15 13 13 13 16 15 13 34 30 54 89 98 100 96 100 43 83 100 100 100 100 97 86 100 100 100 100 98 100 100 100 100 100 100 100 100 100 100 100
12 13 15 17 17 18 16 15 14 14 13 10 17 23 31 59 75 95 96 59 70 36 97 100 98 100 96 78 76 100 100 100 100 100 100 100 100 100 100 100 100 100 100 100 100
13 16 17 16 20 20 19 19 16 15 14 11 16 26 31 75 90 70 27 34 36 40 99 97 85 84 91 99 100 100 96 98 100 97 100 100 100 100 100 100 99 100 100 100 100
14 18 20 20 22 23 24 23 19 17 15 14 17 19 35 70 69 29 35 40 46 46 94 98 99 100 100 100 94 94 98 96 99 100 98 100 98 100 100 100 98 100 100 100 100
15 20 22 23 26 27 27 28 24 20 20 16 18 23 30 72 75 29 42 55 73 41 90 100 100 100 100 100 100 87 94 85 90 100 100 100 100 100 100 99 100 100 100 100 100
18 22 24 28 29 30 32 32 30 24 27 20 22 21 26 58 55 65 46 54 67 65 74 100 98 100 100 86 84 82 100 100 100 100 99 98 100 100 100 100 100 99 100 100 100

GFSSW_700_rhum_384.txt.gz
RH
58 58 56 54 55 55 54 53 54 58 58 57 54 51 48 44 40 37 32 29 25 24 25 30 34 46 60 70 67 75 100 82 62 51 44 38 37 29 26 24 23 23 21 23 23
62 59 55 54 54 54 55 56 58 56 55 54 48 37 28 18 12 7 8 10 16 25 40 46 50 48 51 66 90 95 97 70 73 63 54 49 46 41 34 29 26 26 28 28 28
60 59 53 50 51 50 52 54 55 54 48 38 19 7 2 1 2 4 5 3 4 8 10 21 36 50 53 57 91 93 65 61 97 84 72 63 56 53 39 37 43 36 32 30 31
59 56 56 61 58 54 52 51 47 36 16 3 1 1 1 1 3 5 6 7 11 15 20 37 70 82 87 97 90 99 97 100 85 98 92 72 64 59 58 53 45 43 38 35 35
63 64 63 62 59 52 43 26 9 2 1 1 1 2 2 2 6 7 9 17 18 26 39 48 84 86 93 94 98 100 94 99 100 97 95 97 97 98 97 86 69 53 47 42 38
66 64 63 56 46 22 4 1 1 2 2 2 2 2 2 3 8 7 9 17 31 32 32 46 63 98 99 99 99 97 99 92 89 96 99 99 92 99 98 96 96 87 68 62 55
54 50 46 28 7 2 2 2 2 2 3 3 3 3 4 8 8 12 20 31 39 45 56 65 78 75 73 95 95 82 89 96 81 82 74 88 97 97 98 98 96 96 95 81 73
43 26 8 2 2 2 2 3 3 4 4 4 5 5 7 15 17 25 39 48 59 59 46 48 58 73 71 75 74 100 100 100 82 93 97 94 94 99 90 90 99 99 97 98 97
8 2 1 2 2 3 3 3 4 4 5 6 6 9 17 34 45 47 53 65 65 68 62 53 40 35 57 74 90 94 76 67 63 77 90 95 88 90 96 96 88 90 97 100 98
1 2 2 2 3 3 3 5 5 6 6 8 13 21 34 42 56 74 93 82 79 78 69 54 38 46 79 85 69 53 54 57 58 64 85 90 92 93 88 99 98 98 98 100 100
2 2 3 3 4 5 6 6 7 7 8 9 14 25 56 58 80 76 78 75 69 54 38 24 25 35 59 82 97 98 94 81 72 73 93 82 87 96 97 88 100 99 94 96 97
2 3 4 4 6 7 8 8 8 10 9 22 77 83 85 88 97 82 80 54 31 17 13 20 26 52 86 79 82 88 84 70 64 72 92 93 99 97 98 100 100 100 100 99 97
3 4 5 7 7 8 9 10 11 12 11 59 97 98 94 90 69 54 34 18 12 10 8 10 50 43 69 77 57 75 71 67 80 84 75 73 99 99 99 100 98 99 97 98 97
4 6 7 8 9 8 10 10 12 11 27 81 99 88 86 52 33 21 18 11 12 12 13 59 70 60 86 85 65 72 93 84 65 74 65 88 62 100 97 97 97 97 96 96 96
7 8 9 8 8 10 10 11 11 13 64 79 90 77 19 16 24 22 13 13 20 35 33 63 73 64 66 62 59 86 57 51 44 49 73 68 82 100 100 98 98 98 98 97 96
9 8 8 8 9 9 10 12 12 42 63 62 56 16 24 28 16 19 14 18 26 45 65 74 99 80 69 54 60 81 52 40 53 93 82 54 58 100 100 100 100 98 97 97 97
8 8 8 8 9 9 10 12 22 65 49 56 19 19 52 28 20 28 45 27 49 63 68 67 77 81 56 44 64 56 58 65 76 89 57 99 86 100 100 100 100 100 100 98 98
8 8 9 10 10 10 12 13 34 83 23 16 19 56 40 34 44 54 84 100 72 66 90 79 65 77 75 67 64 87 100 91 85 59 83 99 94 100 100 100 100 100 100 100 98
7 8 10 10 10 13 13 14 52 22 26 27 29 47 82 35 70 98 100 100 94 48 80 97 94 100 69 68 48 68 100 100 100 90 84 96 100 100 100 100 100 100 100 100 100
7 7 8 10 12 14 12 22 31 24 19 26 22 54 64 62 89 98 100 100 51 48 58 100 98 100 63 79 81 85 99 99 98 89 82 82 92 97 100 100 100 100 100 100 100
6 7 9 13 16 9 20 23 25 20 16 20 30 35 54 100 98 100 100 96 52 71 99 100 100 100 69 94 100 100 100 100 100 100 89 82 89 100 100 100 100 100 100 100 100
6 8 12 14 9 20 25 23 24 20 18 24 29 39 82 94 36 74 100 88 90 100 100 100 100 98 97 81 94 100 100 100 94 89 98 88 96 100 100 100 100 100 100 100 100
5 9 15 14 21 28 28 27 25 24 21 22 28 48 88 64 47 61 62 69 94 95 98 88 99 96 95 73 98 100 99 100 100 100 97 85 92 100 100 100 100 100 100 100 100
5 9 17 17 27 30 30 31 30 29 28 26 36 48 72 43 53 65 60 63 75 96 97 82 60 62 82 98 100 100 95 84 98 87 92 100 100 98 99 100 100 100 99 100 100
4 14 20 26 31 32 32 35 35 34 35 37 42 46 79 75 50 61 63 61 61 92 92 82 100 90 100 99 87 100 100 97 99 100 97 100 100 100 100 99 99 100 100 100 100
4 13 20 22 32 33 34 38 40 40 44 47 51 60 86 77 63 67 67 69 75 68 83 87 100 100 100 100 100 81 94 100 100 100 100 100 100 100 100 100 100 100 100 100 100
4 8 15 24 35 34 38 41 45 46 53 53 51 56 82 100 100 73 78 74 72 68 79 94 99 100 100 69 71 78 100 100 100 100 100 100 100 100 99 100 100 100 100 100 100